Location: Lac de la Montagne noire
(46.1952°N, 74.2701°W)
Time: 18:52:57
(UTC-04:00)

ISS - Pass Details

Date: 25 March 2019
Orbit: 408 x 410 km, 51.6° (Epoch: 23 April)

Event Time Altitude Azimuth Distance (km) Brightness Sun altitude
Rises 21:24:37 0° 271° (W) 2,333 1.1 -22.0°
Reaches altitude 10° 21:26:49 10° 281° (W) 1,472 0.0 -22.4°
Maximum altitude 21:29:53 35° 349° (N) 688 -2.4 -22.8°
Enters shadow 21:29:53 35° 350° (N) 688 -2.4 -22.8°
